{"data":{"norad_id":58349,"intl_designator":"2023-176A","name":"HAIYANG-3A","alt_names":[],"object_type":"PAYLOAD","status":"ACTIVE","operator":null,"country":"PRC","launch_date":"2023-11-16","launch_site_code":"JSC","launch_vehicle":null,"mission":null,"orbit_class":"UNKNOWN","rcs_meters":null,"size_class":null,"mass_kg":null,"dimensions":null,"purposes":[],"wikipedia_slug":null,"has_3d_model":false,"image_url":null,"decayed_at":null,"tle_current":{"epoch":"2026-05-25T05:08:12.782112Z","epoch_age_seconds":67257,"freshness":"FRESH","line1":"1 58349U 23176A   26145.21403683  .00000093  00000+0  48958-4 0  9992","line2":"2 58349  98.5466 223.4447 0010868  94.1327 266.1100 14.34164492132026","mean_motion":14.34164492,"eccentricity":0.0010868,"inclination_deg":98.5466,"raan_deg":223.4447,"arg_perigee_deg":94.1327,"mean_anomaly_deg":266.11,"bstar":4.8958e-5,"rev_number":13202,"period_min":100.40689251704,"perigee_km":770.06718763277,"apogee_km":785.62142860409,"semimajor_km":7155.9813081184,"source":"CELESTRAK","updated_at":"2026-05-25T13:38:00.681519Z"}}}